Time,TemperatureF,DewpointF,PressureIn,WindDirection,WindDirectionDegrees,WindSpeedMPH,WindSpeedGustMPH,Humidity,HourlyPrecipIn,Conditions,Clouds,dailyrainin,SoftwareType,DateUTC
2013-01-20 00:00:00,38.6,33.0,30.17,West,270,0.0,0.0,80,0.00,,CLR,0.00,VWS V14.01,2013-01-20 08:00:00,
2013-01-20 00:05:00,38.3,32.7,30.17,West,270,0.0,0.0,80,0.00,,CLR,0.00,VWS V14.01,2013-01-20 08:05:00,
2013-01-20 00:10:00,38.2,32.6,30.17,West,270,0.0,0.0,80,0.00,,CLR,0.00,VWS V14.01,2013-01-20 08:10:00,
2013-01-20 00:15:00,38.0,32.4,30.17,West,270,0.0,0.0,80,0.00,,CLR,0.00,VWS V14.01,2013-01-20 08:15:00,
2013-01-20 00:20:00,37.8,32.2,30.17,West,270,0.0,0.0,80,0.00,,CLR,0.00,VWS V14.01,2013-01-20 08:20:00,
2013-01-20 00:25:00,37.6,32.0,30.17,West,270,0.0,0.0,80,0.00,,CLR,0.00,VWS V14.01,2013-01-20 08:25:00,
2013-01-20 00:30:00,37.5,32.2,30.17,West,270,0.0,0.0,81,0.00,,CLR,0.00,VWS V14.01,2013-01-20 08:30:00,
2013-01-20 00:35:00,37.3,32.0,30.17,West,270,0.0,0.0,81,0.00,,CLR,0.00,VWS V14.01,2013-01-20 08:35:00,
2013-01-20 00:40:00,37.3,32.0,30.17,West,270,0.0,0.0,81,0.00,,CLR,0.00,VWS V14.01,2013-01-20 08:40:00,
2013-01-20 00:45:00,37.2,31.9,30.17,West,270,0.0,0.0,81,0.00,,CLR,0.00,VWS V14.01,2013-01-20 08:45:00,
2013-01-20 00:50:00,37.0,31.7,30.17,West,270,0.0,0.0,81,0.00,,CLR,0.00,VWS V14.01,2013-01-20 08:50:00,
2013-01-20 00:55:00,37.0,32.0,30.17,West,270,0.0,0.0,82,0.00,,CLR,0.00,VWS V14.01,2013-01-20 08:55:00,
2013-01-20 01:00:00,36.9,31.9,30.17,West,270,0.0,0.0,82,0.00,,CLR,0.00,VWS V14.01,2013-01-20 09:00:00,
2013-01-20 01:05:00,36.8,31.8,30.17,West,270,0.0,0.0,82,0.00,,CLR,0.00,VWS V14.01,2013-01-20 09:05:00,
2013-01-20 01:10:00,36.8,31.8,30.17,West,270,0.0,0.0,82,0.00,,CLR,0.00,VWS V14.01,2013-01-20 09:10:00,
2013-01-20 01:15:00,36.6,31.6,30.17,West,270,0.0,0.0,82,0.00,,CLR,0.00,VWS V14.01,2013-01-20 09:15:00,
2013-01-20 01:20:00,36.5,31.5,30.17,West,270,0.0,0.0,82,0.00,,CLR,0.00,VWS V14.01,2013-01-20 09:20:00,
2013-01-20 01:25:00,36.3,31.3,30.17,West,270,0.0,0.0,82,0.00,,CLR,0.00,VWS V14.01,2013-01-20 09:25:00,
2013-01-20 01:30:00,36.0,31.0,30.17,West,270,0.0,0.0,82,0.00,,CLR,0.00,VWS V14.01,2013-01-20 09:30:00,
2013-01-20 01:35:00,35.9,31.2,30.17,West,270,0.0,0.0,83,0.00,,CLR,0.00,VWS V14.01,2013-01-20 09:35:00,
2013-01-20 01:40:00,35.9,31.2,30.17,West,270,0.0,0.0,83,0.00,,CLR,0.00,VWS V14.01,2013-01-20 09:40:00,
2013-01-20 01:45:00,35.8,31.1,30.18,West,270,0.0,0.0,83,0.00,,CLR,0.00,VWS V14.01,2013-01-20 09:45:00,
2013-01-20 01:50:00,35.8,31.5,30.18,West,270,0.0,0.0,84,0.00,,CLR,0.00,VWS V14.01,2013-01-20 09:50:00,
2013-01-20 01:55:00,35.8,31.5,30.18,West,270,0.0,0.0,84,0.00,,CLR,0.00,VWS V14.01,2013-01-20 09:55:00,
2013-01-20 02:00:00,35.8,31.5,30.18,West,270,0.0,0.0,84,0.00,,CLR,0.00,VWS V14.01,2013-01-20 10:00:00,
2013-01-20 02:05:00,35.6,31.2,30.18,West,270,0.0,0.0,84,0.00,,CLR,0.00,VWS V14.01,2013-01-20 10:05:00,
2013-01-20 02:10:00,35.5,31.1,30.18,West,270,0.0,0.0,84,0.00,,CLR,0.00,VWS V14.01,2013-01-20 10:10:00,
2013-01-20 02:15:00,35.5,31.1,30.17,West,270,0.0,0.0,84,0.00,,CLR,0.00,VWS V14.01,2013-01-20 10:15:00,
2013-01-20 02:20:00,35.2,30.9,30.17,West,270,0.0,0.0,84,0.00,,CLR,0.00,VWS V14.01,2013-01-20 10:20:00,
2013-01-20 02:25:00,35.0,31.0,30.17,West,270,0.0,0.0,85,0.00,,CLR,0.00,VWS V14.01,2013-01-20 10:25:00,
2013-01-20 02:30:00,34.9,30.9,30.18,West,270,0.0,0.0,85,0.00,,CLR,0.00,VWS V14.01,2013-01-20 10:30:00,
2013-01-20 02:35:00,34.7,30.7,30.18,West,270,0.0,0.0,85,0.00,,CLR,0.00,VWS V14.01,2013-01-20 10:35:00,
2013-01-20 02:40:00,34.7,30.7,30.18,West,270,0.0,0.0,85,0.00,,CLR,0.00,VWS V14.01,2013-01-20 10:40:00,
2013-01-20 02:45:00,34.7,30.7,30.17,West,270,0.0,0.0,85,0.00,,CLR,0.00,VWS V14.01,2013-01-20 10:45:00,
2013-01-20 02:50:00,34.7,31.0,30.17,West,270,0.0,0.0,86,0.00,,CLR,0.00,VWS V14.01,2013-01-20 10:50:00,
2013-01-20 02:55:00,34.7,30.7,30.17,West,270,0.0,0.0,85,0.00,,CLR,0.00,VWS V14.01,2013-01-20 10:55:00,
2013-01-20 03:00:00,34.7,30.7,30.17,West,270,0.0,0.0,85,0.00,,CLR,0.00,VWS V14.01,2013-01-20 11:00:00,
2013-01-20 03:05:00,34.6,30.9,30.17,West,270,0.0,0.0,86,0.00,,CLR,0.00,VWS V14.01,2013-01-20 11:05:00,
2013-01-20 03:10:00,34.4,30.6,30.17,West,270,0.0,0.0,86,0.00,,CLR,0.00,VWS V14.01,2013-01-20 11:10:00,
2013-01-20 03:15:00,34.1,30.1,30.17,West,270,0.0,0.0,85,0.00,,CLR,0.00,VWS V14.01,2013-01-20 11:15:00,
2013-01-20 03:20:00,34.0,30.3,30.17,West,270,0.0,0.0,86,0.00,,CLR,0.00,VWS V14.01,2013-01-20 11:20:00,
2013-01-20 03:25:00,33.8,30.1,30.17,West,270,0.0,0.0,86,0.00,,CLR,0.00,VWS V14.01,2013-01-20 11:25:00,
2013-01-20 03:30:00,33.8,30.1,30.17,West,270,0.0,0.0,86,0.00,,CLR,0.00,VWS V14.01,2013-01-20 11:30:00,
2013-01-20 03:35:00,33.5,29.8,30.17,West,270,0.0,0.0,86,0.00,,CLR,0.00,VWS V14.01,2013-01-20 11:35:00,
2013-01-20 03:40:00,33.4,29.7,30.17,West,270,0.0,0.0,86,0.00,,CLR,0.00,VWS V14.01,2013-01-20 11:40:00,
2013-01-20 03:45:00,33.2,29.5,30.16,West,270,0.0,0.0,86,0.00,,CLR,0.00,VWS V14.01,2013-01-20 11:45:00,
2013-01-20 03:50:00,33.1,29.4,30.16,West,270,0.0,0.0,86,0.00,,CLR,0.00,VWS V14.01,2013-01-20 11:50:00,
2013-01-20 03:55:00,32.9,29.2,30.16,West,270,0.0,0.0,86,0.00,,CLR,0.00,VWS V14.01,2013-01-20 11:55:00,
2013-01-20 04:00:00,32.7,29.0,30.16,West,270,0.0,0.0,86,0.00,,CLR,0.00,VWS V14.01,2013-01-20 12:00:00,
2013-01-20 04:05:00,32.5,28.8,30.16,West,270,0.0,0.0,86,0.00,,CLR,0.00,VWS V14.01,2013-01-20 12:05:00,
2013-01-20 04:10:00,32.4,28.7,30.16,West,270,0.0,0.0,86,0.00,,CLR,0.00,VWS V14.01,2013-01-20 12:10:00,
2013-01-20 04:15:00,32.7,29.3,30.16,West,270,0.0,0.0,87,0.00,,CLR,0.00,VWS V14.01,2013-01-20 12:15:00,
2013-01-20 04:20:00,32.8,29.4,30.16,West,270,0.0,0.0,87,0.00,,CLR,0.00,VWS V14.01,2013-01-20 12:20:00,
2013-01-20 04:25:00,32.8,29.4,30.16,West,270,0.0,0.0,87,0.00,,CLR,0.00,VWS V14.01,2013-01-20 12:25:00,
2013-01-20 04:30:00,32.7,29.3,30.16,West,270,0.0,0.0,87,0.00,,CLR,0.00,VWS V14.01,2013-01-20 12:30:00,
2013-01-20 04:35:00,32.7,29.3,30.16,West,270,0.0,0.0,87,0.00,,CLR,0.00,VWS V14.01,2013-01-20 12:35:00,
2013-01-20 04:40:00,32.7,29.3,30.16,West,270,0.0,0.0,87,0.00,,CLR,0.00,VWS V14.01,2013-01-20 12:40:00,
2013-01-20 04:45:00,32.5,29.1,30.16,West,270,0.0,0.0,87,0.00,,CLR,0.00,VWS V14.01,2013-01-20 12:45:00,
2013-01-20 04:50:00,32.4,29.0,30.16,West,270,0.0,0.0,87,0.00,,CLR,0.00,VWS V14.01,2013-01-20 12:50:00,
2013-01-20 04:55:00,32.2,28.8,30.16,West,270,0.0,0.0,87,0.00,,CLR,0.00,VWS V14.01,2013-01-20 12:55:00,
2013-01-20 05:00:00,32.1,28.7,30.16,West,270,0.0,0.0,87,0.00,,CLR,0.00,VWS V14.01,2013-01-20 13:00:00,
2013-01-20 05:05:00,31.9,28.8,30.16,West,270,0.0,0.0,88,0.00,,CLR,0.00,VWS V14.01,2013-01-20 13:05:00,
2013-01-20 05:10:00,32.2,29.0,30.16,West,270,0.0,0.0,88,0.00,,CLR,0.00,VWS V14.01,2013-01-20 13:10:00,
2013-01-20 05:15:00,32.1,29.0,30.17,West,270,0.0,0.0,88,0.00,,CLR,0.00,VWS V14.01,2013-01-20 13:15:00,
2013-01-20 05:20:00,31.9,28.8,30.17,West,270,0.0,0.0,88,0.00,,CLR,0.00,VWS V14.01,2013-01-20 13:20:00,
2013-01-20 05:25:00,31.9,28.8,30.17,West,270,0.0,0.0,88,0.00,,CLR,0.00,VWS V14.01,2013-01-20 13:25:00,
2013-01-20 05:30:00,31.9,28.8,30.16,West,270,0.0,0.0,88,0.00,,CLR,0.00,VWS V14.01,2013-01-20 13:30:00,
2013-01-20 05:35:00,31.6,28.5,30.16,West,270,0.0,0.0,88,0.00,,CLR,0.00,VWS V14.01,2013-01-20 13:35:00,
2013-01-20 05:40:00,31.6,28.7,30.16,West,270,0.0,0.0,89,0.00,,CLR,0.00,VWS V14.01,2013-01-20 13:40:00,
2013-01-20 05:45:00,31.6,28.5,30.16,West,270,0.0,0.0,88,0.00,,CLR,0.00,VWS V14.01,2013-01-20 13:45:00,
2013-01-20 05:50:00,31.8,28.9,30.16,West,270,0.0,0.0,89,0.00,,CLR,0.00,VWS V14.01,2013-01-20 13:50:00,
2013-01-20 05:55:00,31.8,28.9,30.16,West,270,0.0,0.0,89,0.00,,CLR,0.00,VWS V14.01,2013-01-20 13:55:00,
2013-01-20 06:00:00,31.8,28.7,30.16,West,270,0.0,0.0,88,0.00,,CLR,0.00,VWS V14.01,2013-01-20 14:00:00,
2013-01-20 06:05:00,31.5,28.4,30.16,West,270,0.0,0.0,88,0.00,,CLR,0.00,VWS V14.01,2013-01-20 14:05:00,
2013-01-20 06:10:00,31.2,28.1,30.16,West,270,0.0,0.0,88,0.00,,CLR,0.00,VWS V14.01,2013-01-20 14:10:00,
2013-01-20 06:15:00,30.9,27.8,30.17,West,270,0.0,0.0,88,0.00,,CLR,0.00,VWS V14.01,2013-01-20 14:15:00,
2013-01-20 06:20:00,30.9,28.0,30.17,West,270,0.0,0.0,89,0.00,,CLR,0.00,VWS V14.01,2013-01-20 14:20:00,
2013-01-20 06:25:00,31.0,28.1,30.17,West,270,0.0,0.0,89,0.00,,CLR,0.00,VWS V14.01,2013-01-20 14:25:00,
2013-01-20 06:30:00,31.0,28.1,30.17,West,270,0.0,0.0,89,0.00,,CLR,0.00,VWS V14.01,2013-01-20 14:30:00,
2013-01-20 06:35:00,30.9,28.0,30.17,West,270,0.0,0.0,89,0.00,,CLR,0.00,VWS V14.01,2013-01-20 14:35:00,
2013-01-20 06:40:00,30.7,27.9,30.17,West,270,0.0,0.0,89,0.00,,CLR,0.00,VWS V14.01,2013-01-20 14:40:00,
2013-01-20 06:45:00,30.7,27.9,30.17,West,270,0.0,0.0,89,0.00,,CLR,0.00,VWS V14.01,2013-01-20 14:45:00,
2013-01-20 06:50:00,30.7,27.9,30.17,West,270,0.0,0.0,89,0.00,,CLR,0.00,VWS V14.01,2013-01-20 14:50:00,
2013-01-20 06:55:00,30.7,27.9,30.17,West,270,0.0,0.0,89,0.00,,CLR,0.00,VWS V14.01,2013-01-20 14:55:00,
2013-01-20 07:00:00,30.6,27.8,30.17,West,270,0.0,0.0,89,0.00,,CLR,0.00,VWS V14.01,2013-01-20 15:00:00,
2013-01-20 07:05:00,30.4,27.5,30.17,West,270,0.0,0.0,89,0.00,,CLR,0.00,VWS V14.01,2013-01-20 15:05:00,
2013-01-20 07:10:00,30.1,27.3,30.17,West,270,0.0,0.0,89,0.00,,CLR,0.00,VWS V14.01,2013-01-20 15:10:00,
2013-01-20 07:15:00,30.1,27.3,30.17,West,270,0.0,0.0,89,0.00,,CLR,0.00,VWS V14.01,2013-01-20 15:15:00,
2013-01-20 07:20:00,30.0,27.2,30.17,West,270,0.0,0.0,89,0.00,,CLR,0.00,VWS V14.01,2013-01-20 15:20:00,
2013-01-20 07:25:00,30.1,27.3,30.17,West,270,0.0,0.0,89,0.00,,CLR,0.00,VWS V14.01,2013-01-20 15:25:00,
2013-01-20 07:30:00,30.3,27.7,30.17,West,270,0.0,0.0,90,0.00,,CLR,0.00,VWS V14.01,2013-01-20 15:30:00,
2013-01-20 07:35:00,30.9,28.3,30.17,West,270,0.0,0.0,90,0.00,,CLR,0.00,VWS V14.01,2013-01-20 15:35:00,
2013-01-20 07:40:00,31.3,29.0,30.17,West,270,0.0,0.0,91,0.00,,CLR,0.00,VWS V14.01,2013-01-20 15:40:00,
2013-01-20 07:45:00,32.1,29.8,30.18,West,270,0.0,0.0,91,0.00,,CLR,0.00,VWS V14.01,2013-01-20 15:45:00,
2013-01-20 07:50:00,32.4,30.1,30.18,West,270,0.0,0.0,91,0.00,,CLR,0.00,VWS V14.01,2013-01-20 15:50:00,
2013-01-20 07:55:00,32.8,30.5,30.18,West,270,0.0,0.0,91,0.00,,CLR,0.00,VWS V14.01,2013-01-20 15:55:00,
2013-01-20 08:00:00,33.5,31.2,30.18,West,270,0.0,0.0,91,0.00,,CLR,0.00,VWS V14.01,2013-01-20 16:00:00,
2013-01-20 08:05:00,34.0,31.6,30.18,West,270,0.0,0.0,91,0.00,,CLR,0.00,VWS V14.01,2013-01-20 16:05:00,
2013-01-20 08:10:00,34.3,32.0,30.18,West,270,0.0,0.0,91,0.00,,CLR,0.00,VWS V14.01,2013-01-20 16:10:00,
2013-01-20 08:15:00,34.7,32.3,30.18,West,270,0.0,0.0,91,0.00,,CLR,0.00,VWS V14.01,2013-01-20 16:15:00,
2013-01-20 08:20:00,35.2,32.8,30.18,West,270,0.0,0.0,91,0.00,,CLR,0.00,VWS V14.01,2013-01-20 16:20:00,
2013-01-20 08:25:00,35.8,33.2,30.18,West,270,0.0,0.0,90,0.00,,CLR,0.00,VWS V14.01,2013-01-20 16:25:00,
2013-01-20 08:30:00,36.2,33.6,30.18,West,270,0.0,0.0,90,0.00,,CLR,0.00,VWS V14.01,2013-01-20 16:30:00,
2013-01-20 08:35:00,36.8,34.2,30.18,West,270,0.0,0.0,90,0.00,,CLR,0.00,VWS V14.01,2013-01-20 16:35:00,
2013-01-20 08:40:00,37.2,34.3,30.18,NE,45,0.0,1.0,89,0.00,,CLR,0.00,VWS V14.01,2013-01-20 16:40:00,
2013-01-20 08:45:00,37.9,35.0,30.18,NE,45,0.0,0.0,89,0.00,,CLR,0.00,VWS V14.01,2013-01-20 16:45:00,
2013-01-20 08:50:00,38.8,35.8,30.18,NE,45,0.0,0.0,89,0.00,,CLR,0.00,VWS V14.01,2013-01-20 16:50:00,
2013-01-20 08:55:00,39.8,36.2,30.18,NE,45,0.0,0.0,87,0.00,,CLR,0.00,VWS V14.01,2013-01-20 16:55:00,
2013-01-20 09:00:00,40.6,36.8,30.18,NE,45,0.0,1.0,86,0.00,,CLR,0.00,VWS V14.01,2013-01-20 17:00:00,
2013-01-20 09:05:00,41.6,37.1,30.18,NE,45,0.0,0.0,84,0.00,,CLR,0.00,VWS V14.01,2013-01-20 17:05:00,
2013-01-20 09:10:00,42.6,37.5,30.18,NE,45,0.0,1.0,82,0.00,,CLR,0.00,VWS V14.01,2013-01-20 17:10:00,
2013-01-20 09:15:00,43.3,37.2,30.18,NE,45,0.0,1.0,79,0.00,,CLR,0.00,VWS V14.01,2013-01-20 17:15:00,
2013-01-20 09:20:00,44.1,37.0,30.18,NE,45,0.0,1.0,76,0.00,,CLR,0.00,VWS V14.01,2013-01-20 17:20:00,
2013-01-20 09:25:00,45.1,37.3,30.18,NE,45,0.0,0.0,74,0.00,,CLR,0.00,VWS V14.01,2013-01-20 17:25:00,
2013-01-20 09:30:00,45.7,37.2,30.18,NE,45,0.0,1.0,72,0.00,,CLR,0.00,VWS V14.01,2013-01-20 17:30:00,
2013-01-20 09:35:00,46.5,36.9,30.18,NE,45,0.0,1.0,69,0.00,,CLR,0.00,VWS V14.01,2013-01-20 17:35:00,
2013-01-20 09:40:00,47.1,36.7,30.18,NE,45,0.0,0.0,67,0.00,,CLR,0.00,VWS V14.01,2013-01-20 17:40:00,
2013-01-20 09:45:00,48.0,36.8,30.18,NE,45,0.0,0.0,65,0.00,,CLR,0.00,VWS V14.01,2013-01-20 17:45:00,
2013-01-20 09:50:00,48.9,37.3,30.18,NE,45,0.0,0.0,64,0.00,,CLR,0.00,VWS V14.01,2013-01-20 17:50:00,
2013-01-20 09:55:00,49.8,36.9,30.18,NE,45,0.0,1.0,61,0.00,,CLR,0.00,VWS V14.01,2013-01-20 17:55:00,
2013-01-20 10:00:00,50.8,37.4,30.18,NE,45,0.0,0.0,60,0.00,,CLR,0.00,VWS V14.01,2013-01-20 18:00:00,
2013-01-20 10:05:00,51.7,36.5,30.18,NE,45,0.0,0.0,56,0.00,,CLR,0.00,VWS V14.01,2013-01-20 18:05:00,
2013-01-20 10:10:00,52.6,36.9,30.18,NE,45,0.0,0.0,55,0.00,,CLR,0.00,VWS V14.01,2013-01-20 18:10:00,
2013-01-20 10:15:00,53.9,36.7,30.17,NE,45,0.0,0.0,52,0.00,,CLR,0.00,VWS V14.01,2013-01-20 18:15:00,
2013-01-20 10:20:00,55.3,36.0,30.17,NE,45,0.0,1.0,48,0.00,,CLR,0.00,VWS V14.01,2013-01-20 18:20:00,
2013-01-20 10:25:00,56.9,36.9,30.17,NE,45,0.0,0.0,47,0.00,,CLR,0.00,VWS V14.01,2013-01-20 18:25:00,
2013-01-20 10:30:00,58.4,36.0,30.16,NE,45,0.0,0.0,43,0.00,,CLR,0.00,VWS V14.01,2013-01-20 18:30:00,
2013-01-20 10:35:00,60.4,36.6,30.16,NE,45,0.0,0.0,41,0.00,,CLR,0.00,VWS V14.01,2013-01-20 18:35:00,
2013-01-20 10:40:00,62.4,36.5,30.16,NE,45,0.0,0.0,38,0.00,,CLR,0.00,VWS V14.01,2013-01-20 18:40:00,
2013-01-20 10:45:00,64.5,36.3,30.15,SE,135,0.0,2.0,35,0.00,,CLR,0.00,VWS V14.01,2013-01-20 18:45:00,
2013-01-20 10:50:00,65.6,34.2,30.15,SE,135,0.0,1.0,31,0.00,,CLR,0.00,VWS V14.01,2013-01-20 18:50:00,
2013-01-20 10:55:00,66.9,35.3,30.15,SE,135,0.0,0.0,31,0.00,,CLR,0.00,VWS V14.01,2013-01-20 18:55:00,
2013-01-20 11:00:00,68.6,34.2,30.14,SE,135,0.0,0.0,28,0.00,,CLR,0.00,VWS V14.01,2013-01-20 19:00:00,
2013-01-20 11:05:00,70.4,35.8,30.14,SE,135,0.0,0.0,28,0.00,,CLR,0.00,VWS V14.01,2013-01-20 19:05:00,
2013-01-20 11:10:00,72.0,35.3,30.14,SE,135,0.0,0.0,26,0.00,,CLR,0.00,VWS V14.01,2013-01-20 19:10:00,
2013-01-20 11:15:00,72.8,35.0,30.13,SE,135,0.0,1.0,25,0.00,,CLR,0.00,VWS V14.01,2013-01-20 19:15:00,
2013-01-20 11:20:00,73.3,32.2,30.13,NW,315,0.0,3.0,22,0.00,,CLR,0.00,VWS V14.01,2013-01-20 19:20:00,
2013-01-20 11:25:00,73.2,32.1,30.13,WNW,292,0.0,2.0,22,0.00,,CLR,0.00,VWS V14.01,2013-01-20 19:25:00,
2013-01-20 11:30:00,73.2,31.0,30.11,WNW,292,0.0,2.0,21,0.00,,CLR,0.00,VWS V14.01,2013-01-20 19:30:00,
2013-01-20 11:35:00,73.2,31.0,30.11,NW,315,2.0,5.0,21,0.00,,CLR,0.00,VWS V14.01,2013-01-20 19:35:00,
2013-01-20 11:40:00,73.2,29.8,30.11,WNW,292,1.0,4.0,20,0.00,,CLR,0.00,VWS V14.01,2013-01-20 19:40:00,
2013-01-20 11:45:00,73.7,30.2,30.11,WNW,292,1.0,3.0,20,0.00,,CLR,0.00,VWS V14.01,2013-01-20 19:45:00,
2013-01-20 11:50:00,74.2,29.3,30.11,WSW,248,2.0,5.0,19,0.00,,CLR,0.00,VWS V14.01,2013-01-20 19:50:00,
2013-01-20 11:55:00,74.6,28.3,30.11,NW,315,2.0,4.0,18,0.00,,CLR,0.00,VWS V14.01,2013-01-20 19:55:00,
2013-01-20 12:00:00,74.6,28.3,30.09,West,270,3.0,7.0,18,0.00,,CLR,0.00,VWS V14.01,2013-01-20 20:00:00,
2013-01-20 12:05:00,74.6,29.7,30.09,West,270,3.0,6.0,19,0.00,,CLR,0.00,VWS V14.01,2013-01-20 20:05:00,
2013-01-20 12:10:00,74.6,28.3,30.09,West,270,3.0,6.0,18,0.00,,CLR,0.00,VWS V14.01,2013-01-20 20:10:00,
2013-01-20 12:15:00,74.2,29.3,30.08,West,270,4.0,7.0,19,0.00,,CLR,0.00,VWS V14.01,2013-01-20 20:15:00,
2013-01-20 12:20:00,74.2,31.8,30.08,West,270,4.0,9.0,21,0.00,,CLR,0.00,VWS V14.01,2013-01-20 20:20:00,
2013-01-20 12:25:00,74.2,30.6,30.08,WSW,248,3.0,5.0,20,0.00,,CLR,0.00,VWS V14.01,2013-01-20 20:25:00,
2013-01-20 12:30:00,74.2,31.8,30.07,West,270,4.0,8.0,21,0.00,,CLR,0.00,VWS V14.01,2013-01-20 20:30:00,
2013-01-20 12:35:00,74.6,29.7,30.07,West,270,4.0,9.0,19,0.00,,CLR,0.00,VWS V14.01,2013-01-20 20:35:00,
2013-01-20 12:40:00,74.7,31.0,30.07,WSW,248,4.0,10.0,20,0.00,,CLR,0.00,VWS V14.01,2013-01-20 20:40:00,
2013-01-20 12:45:00,74.7,31.0,30.07,West,270,3.0,9.0,20,0.00,,CLR,0.00,VWS V14.01,2013-01-20 20:45:00,
2013-01-20 12:50:00,74.7,31.0,30.07,West,270,4.0,9.0,20,0.00,,CLR,0.00,VWS V14.01,2013-01-20 20:50:00,
2013-01-20 12:55:00,75.1,30.1,30.07,West,270,2.0,6.0,19,0.00,,CLR,0.00,VWS V14.01,2013-01-20 20:55:00,
2013-01-20 13:00:00,75.6,30.5,30.06,NW,315,2.0,5.0,19,0.00,,CLR,0.00,VWS V14.01,2013-01-20 21:00:00,
2013-01-20 13:05:00,76.1,30.9,30.06,West,270,2.0,5.0,19,0.00,,CLR,0.00,VWS V14.01,2013-01-20 21:05:00,
2013-01-20 13:10:00,76.3,31.0,30.06,West,270,2.0,6.0,19,0.00,,CLR,0.00,VWS V14.01,2013-01-20 21:10:00,
2013-01-20 13:15:00,76.1,30.9,30.05,West,270,3.0,7.0,19,0.00,,CLR,0.00,VWS V14.01,2013-01-20 21:15:00,
2013-01-20 13:20:00,76.3,31.0,30.05,WSW,248,2.0,7.0,19,0.00,,CLR,0.00,VWS V14.01,2013-01-20 21:20:00,
2013-01-20 13:25:00,76.3,32.3,30.05,NW,315,4.0,7.0,20,0.00,,CLR,0.00,VWS V14.01,2013-01-20 21:25:00,
2013-01-20 13:30:00,76.3,32.3,30.04,NNW,338,4.0,9.0,20,0.00,,CLR,0.00,VWS V14.01,2013-01-20 21:30:00,
2013-01-20 13:35:00,76.3,32.3,30.04,NW,315,5.0,11.0,20,0.00,,CLR,0.00,VWS V14.01,2013-01-20 21:35:00,
2013-01-20 13:40:00,76.3,34.7,30.04,NNW,338,3.0,8.0,22,0.00,,CLR,0.00,VWS V14.01,2013-01-20 21:40:00,
2013-01-20 13:45:00,76.1,33.4,30.04,NW,315,5.0,10.0,21,0.00,,CLR,0.00,VWS V14.01,2013-01-20 21:45:00,
2013-01-20 13:50:00,76.0,34.5,30.04,NW,315,6.0,11.0,22,0.00,,CLR,0.00,VWS V14.01,2013-01-20 21:50:00,
2013-01-20 13:55:00,76.0,33.3,30.04,NW,315,5.0,10.0,21,0.00,,CLR,0.00,VWS V14.01,2013-01-20 21:55:00,
2013-01-20 14:00:00,76.1,33.4,30.03,NW,315,4.0,8.0,21,0.00,,CLR,0.00,VWS V14.01,2013-01-20 22:00:00,
2013-01-20 14:05:00,76.3,34.7,30.03,NNW,338,4.0,9.0,22,0.00,,CLR,0.00,VWS V14.01,2013-01-20 22:05:00,
2013-01-20 14:10:00,76.1,34.5,30.03,NW,315,5.0,9.0,22,0.00,,CLR,0.00,VWS V14.01,2013-01-20 22:10:00,
2013-01-20 14:15:00,76.1,35.7,30.03,NNW,338,3.0,6.0,23,0.00,,CLR,0.00,VWS V14.01,2013-01-20 22:15:00,
2013-01-20 14:20:00,76.0,36.6,30.03,NW,315,4.0,7.0,24,0.00,,CLR,0.00,VWS V14.01,2013-01-20 22:20:00,
2013-01-20 14:25:00,76.0,36.6,30.03,NW,315,4.0,10.0,24,0.00,,CLR,0.00,VWS V14.01,2013-01-20 22:25:00,
2013-01-20 14:30:00,75.8,36.5,30.03,NW,315,5.0,10.0,24,0.00,,CLR,0.00,VWS V14.01,2013-01-20 22:30:00,
2013-01-20 14:35:00,75.6,36.3,30.03,NW,315,4.0,9.0,24,0.00,,CLR,0.00,VWS V14.01,2013-01-20 22:35:00,
2013-01-20 14:40:00,75.4,36.1,30.03,NW,315,4.0,9.0,24,0.00,,CLR,0.00,VWS V14.01,2013-01-20 22:40:00,
2013-01-20 14:45:00,75.3,36.0,30.03,NW,315,5.0,11.0,24,0.00,,CLR,0.00,VWS V14.01,2013-01-20 22:45:00,
2013-01-20 14:50:00,75.3,37.1,30.03,WNW,292,4.0,8.0,25,0.00,,CLR,0.00,VWS V14.01,2013-01-20 22:50:00,
2013-01-20 14:55:00,75.3,36.0,30.03,WNW,292,4.0,9.0,24,0.00,,CLR,0.00,VWS V14.01,2013-01-20 22:55:00,
2013-01-20 15:00:00,75.3,36.0,30.03,NW,315,4.0,10.0,24,0.00,,CLR,0.00,VWS V14.01,2013-01-20 23:00:00,
2013-01-20 15:05:00,75.3,36.0,30.03,West,270,4.0,9.0,24,0.00,,CLR,0.00,VWS V14.01,2013-01-20 23:05:00,
2013-01-20 15:10:00,75.3,36.0,30.03,WNW,292,3.0,5.0,24,0.00,,CLR,0.00,VWS V14.01,2013-01-20 23:10:00,
2013-01-20 15:15:00,74.9,35.7,30.04,NW,315,4.0,11.0,24,0.00,,CLR,0.00,VWS V14.01,2013-01-20 23:15:00,
2013-01-20 15:20:00,74.7,35.5,30.04,NW,315,2.0,6.0,24,0.00,,CLR,0.00,VWS V14.01,2013-01-20 23:20:00,
2013-01-20 15:25:00,74.7,36.6,30.04,NW,315,3.0,6.0,25,0.00,,CLR,0.00,VWS V14.01,2013-01-20 23:25:00,
2013-01-20 15:30:00,74.6,36.5,30.03,NW,315,3.0,7.0,25,0.00,,CLR,0.00,VWS V14.01,2013-01-20 23:30:00,
2013-01-20 15:35:00,74.6,36.5,30.03,NW,315,3.0,7.0,25,0.00,,CLR,0.00,VWS V14.01,2013-01-20 23:35:00,
2013-01-20 15:40:00,74.4,36.3,30.03,NW,315,2.0,5.0,25,0.00,,CLR,0.00,VWS V14.01,2013-01-20 23:40:00,
2013-01-20 15:45:00,74.4,36.3,30.04,WNW,292,1.0,4.0,25,0.00,,CLR,0.00,VWS V14.01,2013-01-20 23:45:00,
2013-01-20 15:50:00,74.2,35.1,30.04,WNW,292,2.0,5.0,24,0.00,,CLR,0.00,VWS V14.01,2013-01-20 23:50:00,
2013-01-20 15:55:00,74.0,36.0,30.04,WNW,292,1.0,4.0,25,0.00,,CLR,0.00,VWS V14.01,2013-01-20 23:55:00,
2013-01-20 16:00:00,73.9,34.9,30.04,WNW,292,2.0,5.0,24,0.00,,CLR,0.00,VWS V14.01,2013-01-21 00:00:00,
2013-01-20 16:05:00,73.9,35.9,30.04,NW,315,1.0,6.0,25,0.00,,CLR,0.00,VWS V14.01,2013-01-21 00:05:00,
2013-01-20 16:10:00,73.5,35.6,30.04,West,270,2.0,6.0,25,0.00,,CLR,0.00,VWS V14.01,2013-01-21 00:10:00,
2013-01-20 16:15:00,73.3,35.4,30.05,West,270,2.0,6.0,25,0.00,,CLR,0.00,VWS V14.01,2013-01-21 00:15:00,
2013-01-20 16:20:00,73.0,35.1,30.05,NW,315,2.0,6.0,25,0.00,,CLR,0.00,VWS V14.01,2013-01-21 00:20:00,
2013-01-20 16:25:00,72.7,35.9,30.05,NW,315,0.0,4.0,26,0.00,,CLR,0.00,VWS V14.01,2013-01-21 00:25:00,
2013-01-20 16:30:00,72.3,35.5,30.05,NNW,338,1.0,5.0,26,0.00,,CLR,0.00,VWS V14.01,2013-01-21 00:30:00,
2013-01-20 16:35:00,71.6,34.9,30.05,NNE,22,2.0,6.0,26,0.00,,CLR,0.00,VWS V14.01,2013-01-21 00:35:00,
2013-01-20 16:40:00,70.8,34.2,30.05,North,0,1.0,5.0,26,0.00,,CLR,0.00,VWS V14.01,2013-01-21 00:40:00,
2013-01-20 16:45:00,69.8,32.4,30.05,North,0,2.0,6.0,25,0.00,,CLR,0.00,VWS V14.01,2013-01-21 00:45:00,
2013-01-20 16:50:00,68.8,32.5,30.05,North,0,1.0,5.0,26,0.00,,CLR,0.00,VWS V14.01,2013-01-21 00:50:00,
2013-01-20 16:55:00,67.9,32.7,30.05,North,0,0.0,3.0,27,0.00,,CLR,0.00,VWS V14.01,2013-01-21 00:55:00,
2013-01-20 17:00:00,67.1,32.0,30.06,NNE,22,0.0,2.0,27,0.00,,CLR,0.00,VWS V14.01,2013-01-21 01:00:00,
2013-01-20 17:05:00,66.4,32.3,30.06,North,0,0.0,1.0,28,0.00,,CLR,0.00,VWS V14.01,2013-01-21 01:05:00,
2013-01-20 17:10:00,65.6,31.6,30.06,North,0,0.0,1.0,28,0.00,,CLR,0.00,VWS V14.01,2013-01-21 01:10:00,
2013-01-20 17:15:00,65.0,31.1,30.07,North,0,0.0,1.0,28,0.00,,CLR,0.00,VWS V14.01,2013-01-21 01:15:00,
2013-01-20 17:20:00,64.3,31.4,30.07,North,0,0.0,0.0,29,0.00,,CLR,0.00,VWS V14.01,2013-01-21 01:20:00,
2013-01-20 17:25:00,63.5,30.7,30.07,North,0,0.0,1.0,29,0.00,,CLR,0.00,VWS V14.01,2013-01-21 01:25:00,
2013-01-20 17:30:00,62.9,31.0,30.07,North,0,0.0,1.0,30,0.00,,CLR,0.00,VWS V14.01,2013-01-21 01:30:00,
2013-01-20 17:35:00,62.1,31.1,30.07,North,0,0.0,1.0,31,0.00,,CLR,0.00,VWS V14.01,2013-01-21 01:35:00,
2013-01-20 17:40:00,61.5,31.4,30.07,North,0,0.0,0.0,32,0.00,,CLR,0.00,VWS V14.01,2013-01-21 01:40:00,
2013-01-20 17:45:00,60.9,32.4,30.08,North,0,0.0,1.0,34,0.00,,CLR,0.00,VWS V14.01,2013-01-21 01:45:00,
2013-01-20 17:50:00,60.2,32.5,30.08,North,0,0.0,1.0,35,0.00,,CLR,0.00,VWS V14.01,2013-01-21 01:50:00,
2013-01-20 17:55:00,59.6,33.3,30.08,North,0,0.0,1.0,37,0.00,,CLR,0.00,VWS V14.01,2013-01-21 01:55:00,
2013-01-20 18:00:00,58.9,33.4,30.09,North,0,0.0,2.0,38,0.00,,CLR,0.00,VWS V14.01,2013-01-21 02:00:00,
2013-01-20 18:05:00,58.1,33.3,30.09,North,0,0.0,1.0,39,0.00,,CLR,0.00,VWS V14.01,2013-01-21 02:05:00,
2013-01-20 18:10:00,57.6,34.1,30.09,North,0,0.0,0.0,41,0.00,,CLR,0.00,VWS V14.01,2013-01-21 02:10:00,
2013-01-20 18:15:00,57.2,33.7,30.09,North,0,0.0,0.0,41,0.00,,CLR,0.00,VWS V14.01,2013-01-21 02:15:00,
2013-01-20 18:20:00,56.6,33.8,30.09,North,0,0.0,0.0,42,0.00,,CLR,0.00,VWS V14.01,2013-01-21 02:20:00,
2013-01-20 18:25:00,56.0,34.4,30.09,North,0,0.0,0.0,44,0.00,,CLR,0.00,VWS V14.01,2013-01-21 02:25:00,
2013-01-20 18:30:00,55.6,35.2,30.10,North,0,0.0,0.0,46,0.00,,CLR,0.00,VWS V14.01,2013-01-21 02:30:00,
2013-01-20 18:35:00,55.0,35.2,30.10,North,0,0.0,0.0,47,0.00,,CLR,0.00,VWS V14.01,2013-01-21 02:35:00,
2013-01-20 18:40:00,54.4,35.1,30.10,North,0,0.0,0.0,48,0.00,,CLR,0.00,VWS V14.01,2013-01-21 02:40:00,
2013-01-20 18:45:00,53.9,35.7,30.10,North,0,0.0,0.0,50,0.00,,CLR,0.00,VWS V14.01,2013-01-21 02:45:00,
2013-01-20 18:50:00,53.5,35.8,30.10,North,0,0.0,0.0,51,0.00,,CLR,0.00,VWS V14.01,2013-01-21 02:50:00,
2013-01-20 18:55:00,53.1,36.0,30.10,North,0,0.0,0.0,52,0.00,,CLR,0.00,VWS V14.01,2013-01-21 02:55:00,
2013-01-20 19:00:00,52.8,35.7,30.10,North,0,0.0,0.0,52,0.00,,CLR,0.00,VWS V14.01,2013-01-21 03:00:00,
2013-01-20 19:05:00,52.5,35.4,30.10,North,0,0.0,0.0,52,0.00,,CLR,0.00,VWS V14.01,2013-01-21 03:05:00,
2013-01-20 19:10:00,52.0,34.9,30.10,North,0,0.0,0.0,52,0.00,,CLR,0.00,VWS V14.01,2013-01-21 03:10:00,
2013-01-20 19:15:00,51.6,35.5,30.10,North,0,0.0,0.0,54,0.00,,CLR,0.00,VWS V14.01,2013-01-21 03:15:00,
2013-01-20 19:20:00,51.1,35.5,30.10,North,0,0.0,0.0,55,0.00,,CLR,0.00,VWS V14.01,2013-01-21 03:20:00,
2013-01-20 19:25:00,50.8,35.7,30.10,North,0,0.0,0.0,56,0.00,,CLR,0.00,VWS V14.01,2013-01-21 03:25:00,
2013-01-20 19:30:00,50.4,35.3,30.11,North,0,0.0,0.0,56,0.00,,CLR,0.00,VWS V14.01,2013-01-21 03:30:00,
2013-01-20 19:35:00,49.9,35.7,30.11,North,0,0.0,0.0,58,0.00,,CLR,0.00,VWS V14.01,2013-01-21 03:35:00,
2013-01-20 19:40:00,49.5,35.3,30.11,North,0,0.0,0.0,58,0.00,,CLR,0.00,VWS V14.01,2013-01-21 03:40:00,
2013-01-20 19:45:00,49.2,35.5,30.12,North,0,0.0,1.0,59,0.00,,CLR,0.00,VWS V14.01,2013-01-21 03:45:00,
2013-01-20 19:50:00,48.9,35.6,30.12,North,0,0.0,0.0,60,0.00,,CLR,0.00,VWS V14.01,2013-01-21 03:50:00,
2013-01-20 19:55:00,48.8,35.5,30.12,North,0,0.0,0.0,60,0.00,,CLR,0.00,VWS V14.01,2013-01-21 03:55:00,
2013-01-20 20:00:00,48.5,35.7,30.12,North,0,0.0,0.0,61,0.00,,CLR,0.00,VWS V14.01,2013-01-21 04:00:00,
2013-01-20 20:05:00,48.2,35.4,30.12,North,0,0.0,0.0,61,0.00,,CLR,0.00,VWS V14.01,2013-01-21 04:05:00,
2013-01-20 20:10:00,48.0,35.6,30.12,North,0,0.0,0.0,62,0.00,,CLR,0.00,VWS V14.01,2013-01-21 04:10:00,
2013-01-20 20:15:00,47.7,35.3,30.12,North,0,0.0,0.0,62,0.00,,CLR,0.00,VWS V14.01,2013-01-21 04:15:00,
2013-01-20 20:20:00,47.4,35.5,30.12,North,0,0.0,0.0,63,0.00,,CLR,0.00,VWS V14.01,2013-01-21 04:20:00,
2013-01-20 20:25:00,47.3,35.0,30.12,North,0,0.0,0.0,62,0.00,,CLR,0.00,VWS V14.01,2013-01-21 04:25:00,
2013-01-20 20:30:00,46.8,34.5,30.12,North,0,0.0,0.0,62,0.00,,CLR,0.00,VWS V14.01,2013-01-21 04:30:00,
2013-01-20 20:35:00,46.5,34.6,30.12,North,0,0.0,0.0,63,0.00,,CLR,0.00,VWS V14.01,2013-01-21 04:35:00,
2013-01-20 20:40:00,46.2,34.7,30.12,North,0,0.0,0.0,64,0.00,,CLR,0.00,VWS V14.01,2013-01-21 04:40:00,
2013-01-20 20:45:00,46.0,34.5,30.13,North,0,0.0,0.0,64,0.00,,CLR,0.00,VWS V14.01,2013-01-21 04:45:00,
2013-01-20 20:50:00,45.7,34.6,30.13,North,0,0.0,0.0,65,0.00,,CLR,0.00,VWS V14.01,2013-01-21 04:50:00,
2013-01-20 20:55:00,45.4,34.7,30.13,North,0,0.0,0.0,66,0.00,,CLR,0.00,VWS V14.01,2013-01-21 04:55:00,
2013-01-20 21:00:00,45.1,34.4,30.13,North,0,0.0,0.0,66,0.00,,CLR,0.00,VWS V14.01,2013-01-21 05:00:00,
2013-01-20 21:05:00,44.8,34.2,30.13,North,0,0.0,0.0,66,0.00,,CLR,0.00,VWS V14.01,2013-01-21 05:05:00,
2013-01-20 21:10:00,44.5,34.2,30.13,North,0,0.0,0.0,67,0.00,,CLR,0.00,VWS V14.01,2013-01-21 05:10:00,
2013-01-20 21:15:00,44.2,34.0,30.14,North,0,0.0,0.0,67,0.00,,CLR,0.00,VWS V14.01,2013-01-21 05:15:00,
2013-01-20 21:20:00,43.9,34.0,30.14,North,0,0.0,0.0,68,0.00,,CLR,0.00,VWS V14.01,2013-01-21 05:20:00,
2013-01-20 21:25:00,43.6,33.8,30.14,North,0,0.0,0.0,68,0.00,,CLR,0.00,VWS V14.01,2013-01-21 05:25:00,
2013-01-20 21:30:00,43.3,33.8,30.15,North,0,0.0,0.0,69,0.00,,CLR,0.00,VWS V14.01,2013-01-21 05:30:00,
2013-01-20 21:35:00,43.1,33.6,30.15,North,0,0.0,0.0,69,0.00,,CLR,0.00,VWS V14.01,2013-01-21 05:35:00,
2013-01-20 21:40:00,42.8,33.3,30.15,North,0,0.0,0.0,69,0.00,,CLR,0.00,VWS V14.01,2013-01-21 05:40:00,
2013-01-20 21:45:00,42.5,33.1,30.15,North,0,0.0,0.0,69,0.00,,CLR,0.00,VWS V14.01,2013-01-21 05:45:00,
2013-01-20 21:50:00,42.2,33.1,30.15,North,0,0.0,0.0,70,0.00,,CLR,0.00,VWS V14.01,2013-01-21 05:50:00,
2013-01-20 21:55:00,41.9,32.8,30.15,North,0,0.0,0.0,70,0.00,,CLR,0.00,VWS V14.01,2013-01-21 05:55:00,
2013-01-20 22:00:00,41.8,32.8,30.15,North,0,0.0,0.0,70,0.00,,CLR,0.00,VWS V14.01,2013-01-21 06:00:00,
2013-01-20 22:05:00,41.6,32.6,30.15,North,0,0.0,0.0,70,0.00,,CLR,0.00,VWS V14.01,2013-01-21 06:05:00,
2013-01-20 22:10:00,41.8,33.1,30.15,North,0,0.0,0.0,71,0.00,,CLR,0.00,VWS V14.01,2013-01-21 06:10:00,
2013-01-20 22:15:00,41.8,33.1,30.14,North,0,0.0,0.0,71,0.00,,CLR,0.00,VWS V14.01,2013-01-21 06:15:00,
2013-01-20 22:20:00,41.6,32.9,30.14,North,0,0.0,0.0,71,0.00,,CLR,0.00,VWS V14.01,2013-01-21 06:20:00,
2013-01-20 22:25:00,41.6,32.9,30.14,North,0,0.0,0.0,71,0.00,,CLR,0.00,VWS V14.01,2013-01-21 06:25:00,
2013-01-20 22:30:00,41.5,33.2,30.15,North,0,0.0,0.0,72,0.00,,CLR,0.00,VWS V14.01,2013-01-21 06:30:00,
2013-01-20 22:35:00,41.3,33.0,30.15,North,0,0.0,0.0,72,0.00,,CLR,0.00,VWS V14.01,2013-01-21 06:35:00,
2013-01-20 22:40:00,41.1,32.8,30.15,North,0,0.0,0.0,72,0.00,,CLR,0.00,VWS V14.01,2013-01-21 06:40:00,
2013-01-20 22:45:00,40.9,32.6,30.15,North,0,0.0,0.0,72,0.00,,CLR,0.00,VWS V14.01,2013-01-21 06:45:00,
2013-01-20 22:50:00,40.8,32.5,30.15,North,0,0.0,0.0,72,0.00,,CLR,0.00,VWS V14.01,2013-01-21 06:50:00,
2013-01-20 22:55:00,40.5,32.2,30.15,North,0,0.0,0.0,72,0.00,,CLR,0.00,VWS V14.01,2013-01-21 06:55:00,
2013-01-20 23:00:00,40.3,32.3,30.14,North,0,0.0,0.0,73,0.00,,CLR,0.00,VWS V14.01,2013-01-21 07:00:00,
2013-01-20 23:05:00,40.1,32.2,30.14,North,0,0.0,0.0,73,0.00,,CLR,0.00,VWS V14.01,2013-01-21 07:05:00,
2013-01-20 23:10:00,39.9,32.0,30.14,North,0,0.0,0.0,73,0.00,,CLR,0.00,VWS V14.01,2013-01-21 07:10:00,
2013-01-20 23:15:00,39.6,32.0,30.13,North,0,0.0,0.0,74,0.00,,CLR,0.00,VWS V14.01,2013-01-21 07:15:00,
2013-01-20 23:20:00,39.6,32.0,30.13,North,0,0.0,0.0,74,0.00,,CLR,0.00,VWS V14.01,2013-01-21 07:20:00,
2013-01-20 23:25:00,39.5,32.2,30.13,North,0,0.0,0.0,75,0.00,,CLR,0.00,VWS V14.01,2013-01-21 07:25:00,
2013-01-20 23:30:00,39.5,32.2,30.12,North,0,0.0,1.0,75,0.00,,CLR,0.00,VWS V14.01,2013-01-21 07:30:00,
2013-01-20 23:35:00,39.3,32.0,30.12,North,0,0.0,0.0,75,0.00,,CLR,0.00,VWS V14.01,2013-01-21 07:35:00,
2013-01-20 23:40:00,39.2,32.3,30.12,North,0,0.0,0.0,76,0.00,,CLR,0.00,VWS V14.01,2013-01-21 07:40:00,
2013-01-20 23:45:00,39.1,32.2,30.12,North,0,0.0,1.0,76,0.00,,CLR,0.00,VWS V14.01,2013-01-21 07:45:00,
2013-01-20 23:50:00,38.9,31.7,30.12,North,0,0.0,0.0,75,0.00,,CLR,0.00,VWS V14.01,2013-01-21 07:50:00,
2013-01-20 23:55:00,38.8,31.6,30.12,North,0,0.0,0.0,75,0.00,,CLR,0.00,VWS V14.01,2013-01-21 07:55:00,